AQUA (27424 NORAD) Tracking and Keplerian Element Data

This shows tracking and keplerian element data for the satellite.

Feedback or suggestion? Click here.




ElementValue
Catalog27424
NameAQUA
Epoch Orbit4804
Epoch Day16.11525133
Epoch Year2022
RAAN319.6122
Inclination98.2329
Eccentricity0.0001353
Argument of Perigee53.0791
Mean Anonmoly317.8714
Mean Motion14.57114726
Decay Rate3.26E-06
L11 27424U 02022A 22016.11525133 .00000326 00000+0 82444-4 0 9993
L22 27424 98.2329 319.6122 0001353 53.0791 317.8714 14.57114726 48040

Live tracking and technical data element details for AQUA (NORAD 27424). AQUA can be tracked NOW for your location showing map with azimuth and elevation plus other details from your city location.

Track the satellite on the map from your city or location and see movement details for azimuth, elevation, latitude, longitude, range, height, and movement on the map or in text.







IsCatalogInMostPopularTable: catalog: 27424, numindb: 618
Update: records affected: 1



GetName: 27424 AQUA

Hit Count: updated at: Mon, 17 Jan 2022 02:02:29 GMT